Regional Weather Roundup
Issued by NWS

Home | Current Version | Previous Version | Text Only | Print | Product List | Glossary Off
Versions: 1 2 3 4 5 6 7 8 9 10 11 12 13 14 15 16 17 18 19 20 21 22 23 24 25 26 27 28 29 30 31 32 33 34 35 36 37 38 39 40 41 42 43 44 45 46 47 48 49 50

000
ASUS44 KMEG 020810
RWRTN
TENNESSEE HOURLY STATE WEATHER ROUNDUP
NATIONAL WEATHER SERVICE MEMPHIS TN
300 AM CDT WED SEP 02 2015

TNZ002-004-019-021-049-052-054-088>092-020900-
WEST TENNESSEE

CITY           SKY/WX    TMP DP  RH WIND       PRES   REMARKS
MEMPHIS INTL   CLOUDY    78  71  79 CALM      30.07S
NWS MEMPHIS      N/A     73 N/A N/A MISG        N/A
JACKSON        CLOUDY    71  70  96 CALM      30.08S
DYERSBURG      CLOUDY    73  72  94 CALM      30.08S
UNION CITY     CLEAR    N/A N/A N/A CALM      30.07S
PARIS          CLEAR     70  66  88 CALM      30.09S
LEXINGTON      CLEAR     70  70 100 CALM      30.08S
$$

TNZ008-025-027-028-033-062-065-066-020900-
NORTH MIDDLE TENNESSEE

CITY           SKY/WX    TMP DP  RH WIND       PRES   REMARKS
NASHVILLE      MOCLDY    71  67  87 CALM      30.10S
CLARKSVILLE    CLOUDY    70  67  90 CALM      30.09S
SMYRNA         PTCLDY    69  68  97 CALM      30.10F
COOKEVILLE     CLEAR     64  64 100 CALM      30.11F
CROSSVILLE     CLEAR     67  64  90 CALM      30.16F FOG
$$

TNZ061-075-076-078-094-096-097-020900-
SOUTH MIDDLE TENNESSEE

CITY           SKY/WX    TMP DP  RH WIND       PRES   REMARKS
FAYETTEVILLE   CLEAR     70  68  94 CALM      30.11S
MCMINNVILLE    MOCLDY    68  68 100 CALM      30.12S VSB 3/4
COLUMBIA       CLEAR    N/A N/A N/A CALM      30.09S
$$

TNZ017-018-042-046-047-020900-
NORTHEAST TENNESSEE

CITY           SKY/WX    TMP DP  RH WIND       PRES   REMARKS
TRI CITIES     PTCLDY    65  64  97 CALM      30.15S FOG
ELIZABETHTON   SUNNY     64  63  94 CALM      30.16S
$$

TNZ012-013-036-069-073-074-020900-
CENTRAL EAST TENNESSEE

CITY           SKY/WX    TMP DP  RH WIND       PRES   REMARKS
KNOXVILLE      PTCLDY    71  71 100 CALM      30.10F
OAK RIDGE      CLEAR     69  67  93 CALM      30.13S
GATLINBURG     MOSUNNY   66  64  94 CALM      30.11F
MORRISTOWN     SUNNY     70  66  88 CALM      30.14S
$$

TNZ083-085-099-020900-
SOUTHEAST TENNESSEE

CITY           SKY/WX    TMP DP  RH WIND       PRES   REMARKS
CHATTANOOGA    PTCLDY    72  68  87 CALM      30.11R
$$

SKY/WX REPORTED AS FAIR MEANS FEW OR NO CLOUDS BELOW
12 THOUSAND FEET.




USA.gov is the U.S. government's official web portal to all federal, state and local government web resources and services.